Simultaneous Nadir Overpasses (SNOs) Predictions

Prediction of SNOs near US between AQUA and NPP Satellite Orbit:

Table of predicted SNOs near US for the next 10.0 days since TLE Epoch: 11/28/2015
Index Date (AQUA) Time (AQUA) AQUA Lat,Lon Date (NPP) Time (NPP) NPP Lat,Lon Distance(km) Time Diff (sec)
1 11/30/2015 07:18:42 49.92, -76.00 11/30/2015 07:22:41 50.38, -78.23 167.19 239
2 11/30/2015 08:57:35 49.93,-100.72 11/30/2015 09:04:09 50.49,-103.56 211.61 394
3 12/02/2015 18:16:53 49.98, -80.21 12/02/2015 18:12:58 49.73, -81.76 114.53 235
4 12/02/2015 19:55:46 49.97,-104.93 12/02/2015 19:54:26 49.62,-107.09 159.77 80
5 12/02/2015 21:29:49 32.66,-123.88 12/02/2015 21:30:55 32.16,-126.39 241.96 66
6 12/05/2015 07:45:35 20.05, -89.54 12/05/2015 07:37:42 20.00, -89.42 13.34 473
7 12/05/2015 09:21:31
